Location: Nairn
(57.5833°N, 3.8667°W)
Time: 19:23:42
(UTC+00:00)

Cosmos 1655 Rocket - Pass Details

Date: 07 August 2020
Orbit: 970 x 1007 km, 82.9° (Epoch: 24 September)

Event Time Altitude Azimuth Distance (km) Brightness Sun altitude
Rises 02:27:57 0° 347° (NNW) 3,716 7.8 -11.6°
Reaches altitude 10° 02:30:29 10° 347° (NNW) 2,758 7.1 -11.4°
Maximum altitude 02:36:49 82° 261° (W) 997 4.0 -11.0°
Drops below altitude 10° 02:43:03 10° 175° (S) 2,718 5.9 -10.5°
Enters shadow 02:44:32 - 174° (S) 3,280 6.3 -10.4°
